OPS 4682 DEB, 18268

Orbit data source: Space-Track

OPS 4682 DEB, 18268 is space debris in LEO originally from a launch on Sat, 03 Apr 1965 UTC launched from the Air Force Western Test Range (AFWTR). Debris objects in space refer to the collection of defunct objects orbiting the Earth. Examples of debris include non-operational satellites, rocket bodies, and fragments generated from explosions, collisions, or faulty payload assembly.

Loading next visibility...
Identifier
18268, 1965-027X
Orbit
LEO
Country
Flag of USUS
Related business
Manufacturer
Unknown
Mission
Spacecraft
Bus & Motor
Unknown
Mass
Unknown
Launch date (UTC)
1965-04-03 (61 years ago)
Launch vehicle
Unknown
Launch site
Air Force Western Test Range (AFWTR)
Object type
Payload
Rocket body
Debris
Shape & HBR
Unknown shape, 0.1 m
Radar Cross Section
Small (<0.1 m²)

Expand to show TLE details & history
Last TLE update: 4 days ago

TLE from 4 days ago
0 OPS 4682 DEB
1 18268U 65027X   26032.15103510  .00000286  00000-0  95375-3 0  9992
2 18268  90.2432   1.6855 0033189  63.3872 297.0643 12.97636758644295
Epoch: 2026-02-01T03:37Z
TLE epoch observation values (Epoch: 2026-02-01T03:37:29.432Z)
Latitude
-0°
Longitude
175.94807°
Altitude
1,262.754 km
Speed
7.229 km/s
True Right ascension
00h 06m 44s
True Declination
0° 00' 00"
Sunlit
Object was in daylight at epoch
Visualization orbit readout
Latitude
Unknown
Longitude
Unknown
Altitude
Unknown
Speed
Unknown
Apparent Right ascension
Unknown
Apparent Declination
Unknown
Sunlit
N/A
Visualization observer readout
Local Sidereal Time
10:11:13
Azimuth
Unknown
Elevation
Unknown
Doppler factor
Unknown
Orbital elements
Apogee altitude
1,293.869 km
Perigee altitude
1,243.112 km
Semi-major axis
7,646.627 km
Eccentricity
0.00332
Inclination
90.2432°
RAAN
1.6855°
Arg. of periapsis
63.3872°
True anomaly
296.72499°
Mean anomaly
297.0643°
Eccentric anomaly
296.89471°
Mean motion
3.24592 °/min
Orbital period
110.91 mins
BSTAR
0.00095375
Loading maneuver chart data...
Computing Atmospheric mass density...
Loading historical data...
Loading historical data...
Loading historical data...
Loading historical data...
Loading historical data...
Loading historical data...
Loading historical data...

Documentation

Showing up to 5 results
|